Year,Month,Day,Hour,Minute,Value (Times are PST for temperature in C)
2010,02,19,00,00,4.20
2010,02,19,00,01,4.10
2010,02,19,00,02,4.10
2010,02,19,00,03,4.10
2010,02,19,00,04,4.00
2010,02,19,00,05,3.90
2010,02,19,00,06,3.80
2010,02,19,00,07,3.70
2010,02,19,00,08,3.60
2010,02,19,00,09,3.50
2010,02,19,00,10,3.50
2010,02,19,00,11,3.40
2010,02,19,00,12,3.40
2010,02,19,00,13,3.40
2010,02,19,00,14,3.40
2010,02,19,00,15,3.40
2010,02,19,00,16,3.40
2010,02,19,00,17,3.30
2010,02,19,00,18,3.40
2010,02,19,00,19,3.40
2010,02,19,00,20,3.40
2010,02,19,00,21,3.30
2010,02,19,00,22,3.30
2010,02,19,00,23,3.30
2010,02,19,00,24,3.30
2010,02,19,00,25,3.30
2010,02,19,00,26,3.20
2010,02,19,00,27,3.20
2010,02,19,00,28,3.20
2010,02,19,00,29,3.20
2010,02,19,00,30,3.20
2010,02,19,00,31,3.20
2010,02,19,00,32,3.30
2010,02,19,00,33,3.30
2010,02,19,00,34,3.40
2010,02,19,00,35,3.40
2010,02,19,00,36,3.40
2010,02,19,00,37,3.50
2010,02,19,00,38,3.50
2010,02,19,00,39,3.50
2010,02,19,00,40,3.50
2010,02,19,00,41,3.50
2010,02,19,00,42,3.60
2010,02,19,00,43,3.60
2010,02,19,00,44,3.60
2010,02,19,00,45,3.60
2010,02,19,00,46,3.60
2010,02,19,00,47,3.60
2010,02,19,00,48,3.60
2010,02,19,00,49,3.60
2010,02,19,00,50,3.60
2010,02,19,00,51,3.60
2010,02,19,00,52,3.50
2010,02,19,00,53,3.50
2010,02,19,00,54,3.50
2010,02,19,00,55,3.40
2010,02,19,00,56,3.40
2010,02,19,00,57,3.40
2010,02,19,00,58,3.30
2010,02,19,00,59,3.30
2010,02,19,01,00,3.30
2010,02,19,01,01,3.20
2010,02,19,01,02,3.20
2010,02,19,01,03,3.20
2010,02,19,01,04,3.20
2010,02,19,01,05,3.20
2010,02,19,01,06,3.10
2010,02,19,01,07,3.10
2010,02,19,01,08,3.10
2010,02,19,01,09,3.10
2010,02,19,01,10,3.10
2010,02,19,01,11,3.10
2010,02,19,01,12,3.10
2010,02,19,01,13,3.10
2010,02,19,01,14,3.10
2010,02,19,01,15,3.10
2010,02,19,01,16,3.10
2010,02,19,01,17,3.10
2010,02,19,01,18,3.10
2010,02,19,01,19,3.10
2010,02,19,01,20,3.00
2010,02,19,01,21,3.00
2010,02,19,01,22,3.00
2010,02,19,01,23,2.90
2010,02,19,01,24,2.90
2010,02,19,01,25,3.00
2010,02,19,01,26,3.10
2010,02,19,01,27,3.20
2010,02,19,01,28,3.40
2010,02,19,01,29,3.50
2010,02,19,01,30,3.70
2010,02,19,01,31,3.80
2010,02,19,01,32,3.80
2010,02,19,01,33,3.90
2010,02,19,01,34,3.90
2010,02,19,01,35,3.90
2010,02,19,01,36,4.00
2010,02,19,01,37,4.00
2010,02,19,01,38,4.00
2010,02,19,01,39,4.00
2010,02,19,01,40,4.00
2010,02,19,01,41,4.00
2010,02,19,01,42,4.00
2010,02,19,01,43,4.00
2010,02,19,01,44,3.90
2010,02,19,01,45,3.90
2010,02,19,01,46,3.90
2010,02,19,01,47,3.90
2010,02,19,01,48,3.80
2010,02,19,01,49,3.80
2010,02,19,01,50,3.80
2010,02,19,01,51,3.70
2010,02,19,01,52,3.70
2010,02,19,01,53,3.70
2010,02,19,01,54,3.60
2010,02,19,01,55,3.60
2010,02,19,01,56,3.50
2010,02,19,01,57,3.50
2010,02,19,01,58,3.40
2010,02,19,01,59,3.40
2010,02,19,02,00,3.30
2010,02,19,02,01,3.30
2010,02,19,02,02,3.30
2010,02,19,02,03,3.30
2010,02,19,02,04,3.30
2010,02,19,02,05,3.30
2010,02,19,02,06,3.30
2010,02,19,02,07,3.40
2010,02,19,02,08,3.50
2010,02,19,02,09,3.50
2010,02,19,02,10,3.60
2010,02,19,02,11,3.60
2010,02,19,02,12,3.70
2010,02,19,02,13,3.70
2010,02,19,02,14,3.80
2010,02,19,02,15,3.80
2010,02,19,02,16,3.90
2010,02,19,02,17,3.80
2010,02,19,02,18,3.80
2010,02,19,02,19,3.80
2010,02,19,02,20,3.70
2010,02,19,02,21,3.70
2010,02,19,02,22,3.60
2010,02,19,02,23,3.60
2010,02,19,02,24,3.50
2010,02,19,02,25,3.40
2010,02,19,02,26,3.30
2010,02,19,02,27,3.20
2010,02,19,02,28,3.20
2010,02,19,02,29,3.10
2010,02,19,02,30,3.10
2010,02,19,02,31,3.10
2010,02,19,02,32,3.10
2010,02,19,02,33,3.20
2010,02,19,02,34,3.20
2010,02,19,02,35,3.30
2010,02,19,02,36,3.40
2010,02,19,02,37,3.50
2010,02,19,02,38,3.60
2010,02,19,02,39,3.60
2010,02,19,02,40,3.60
2010,02,19,02,41,3.50
2010,02,19,02,42,3.50
2010,02,19,02,43,3.50
2010,02,19,02,44,3.50
2010,02,19,02,45,3.40
2010,02,19,02,46,3.40
2010,02,19,02,47,3.30
2010,02,19,02,48,3.30
2010,02,19,02,49,3.30
2010,02,19,02,50,3.30
2010,02,19,02,51,3.30
2010,02,19,02,52,3.30
2010,02,19,02,53,3.30
2010,02,19,02,54,3.40
2010,02,19,02,55,3.50
2010,02,19,02,56,3.60
2010,02,19,02,57,3.60
2010,02,19,02,58,3.60
2010,02,19,02,59,3.60
2010,02,19,03,00,3.60
2010,02,19,03,01,3.50
2010,02,19,03,02,3.50
2010,02,19,03,03,3.40
2010,02,19,03,04,3.40
2010,02,19,03,05,3.30
2010,02,19,03,06,3.20
2010,02,19,03,07,3.10
2010,02,19,03,08,3.00
2010,02,19,03,09,2.90
2010,02,19,03,10,2.90
2010,02,19,03,11,2.80
2010,02,19,03,12,2.70
2010,02,19,03,13,2.70
2010,02,19,03,14,2.60
2010,02,19,03,15,2.60
2010,02,19,03,16,2.60
2010,02,19,03,17,2.60
2010,02,19,03,18,2.60
2010,02,19,03,19,2.50
2010,02,19,03,20,2.50
2010,02,19,03,21,2.50
2010,02,19,03,22,2.40
2010,02,19,03,23,2.40
2010,02,19,03,24,2.40
2010,02,19,03,25,2.30
2010,02,19,03,26,2.30
2010,02,19,03,27,2.30
2010,02,19,03,28,2.20
2010,02,19,03,29,2.20
2010,02,19,03,30,2.20
2010,02,19,03,31,2.10
2010,02,19,03,32,2.10
2010,02,19,03,33,2.00
2010,02,19,03,34,2.00
2010,02,19,03,35,1.90
2010,02,19,03,36,1.90
2010,02,19,03,37,1.90
2010,02,19,03,38,1.90
2010,02,19,03,39,1.90
2010,02,19,03,40,1.90
2010,02,19,03,41,1.90
2010,02,19,03,42,1.90
2010,02,19,03,43,1.90
2010,02,19,03,44,1.80
2010,02,19,03,45,1.80
2010,02,19,03,46,1.80
2010,02,19,03,47,1.90
2010,02,19,03,48,1.90
2010,02,19,03,49,1.90
2010,02,19,03,50,1.90
2010,02,19,03,51,1.90
2010,02,19,03,52,2.00
2010,02,19,03,53,2.10
2010,02,19,03,54,2.10
2010,02,19,03,55,2.10
2010,02,19,03,56,2.20
2010,02,19,03,57,2.30
2010,02,19,03,58,2.30
2010,02,19,03,59,2.30
2010,02,19,04,00,2.30
2010,02,19,04,01,2.30
2010,02,19,04,02,2.30
2010,02,19,04,03,2.30
2010,02,19,04,04,2.40
2010,02,19,04,05,2.40
2010,02,19,04,06,2.40
2010,02,19,04,07,2.40
2010,02,19,04,08,2.50
2010,02,19,04,09,2.50
2010,02,19,04,10,2.50
2010,02,19,04,11,2.50
2010,02,19,04,12,2.50
2010,02,19,04,13,2.50
2010,02,19,04,14,2.50
2010,02,19,04,15,2.50
2010,02,19,04,16,2.50
2010,02,19,04,17,2.40
2010,02,19,04,18,2.40
2010,02,19,04,19,2.40
2010,02,19,04,20,2.40
2010,02,19,04,21,2.40
2010,02,19,04,22,2.30
2010,02,19,04,23,2.30
2010,02,19,04,24,2.30
2010,02,19,04,25,2.30
2010,02,19,04,26,2.30
2010,02,19,04,27,2.30
2010,02,19,04,28,2.30
2010,02,19,04,29,2.30
2010,02,19,04,30,2.30
2010,02,19,04,31,2.20
2010,02,19,04,32,2.20
2010,02,19,04,33,2.10
2010,02,19,04,34,2.00
2010,02,19,04,35,1.90
2010,02,19,04,36,1.80
2010,02,19,04,37,1.80
2010,02,19,04,38,1.70
2010,02,19,04,39,1.70
2010,02,19,04,40,1.60
2010,02,19,04,41,1.60
2010,02,19,04,42,1.40
2010,02,19,04,43,1.40
2010,02,19,04,44,1.30
2010,02,19,04,45,1.30
2010,02,19,04,46,1.20
2010,02,19,04,47,1.20
2010,02,19,04,48,1.10
2010,02,19,04,49,1.00
2010,02,19,04,50,1.00
2010,02,19,04,51,0.90
2010,02,19,04,52,0.90
2010,02,19,04,53,0.90
2010,02,19,04,54,0.80
2010,02,19,04,55,0.80
2010,02,19,04,56,0.80
2010,02,19,04,57,0.80
2010,02,19,04,58,0.80
2010,02,19,04,59,0.80
2010,02,19,05,00,0.80
2010,02,19,05,01,0.80
2010,02,19,05,02,0.80
2010,02,19,05,03,0.80
2010,02,19,05,04,0.80
2010,02,19,05,05,0.80
2010,02,19,05,06,0.80
2010,02,19,05,07,0.70
2010,02,19,05,08,0.70
2010,02,19,05,09,0.70
2010,02,19,05,10,0.70
2010,02,19,05,11,0.70
2010,02,19,05,12,0.70
2010,02,19,05,13,0.70
2010,02,19,05,14,0.70
2010,02,19,05,15,0.70
2010,02,19,05,16,0.70
2010,02,19,05,17,0.70
2010,02,19,05,18,0.70
2010,02,19,05,19,0.70
2010,02,19,05,20,0.70
2010,02,19,05,21,0.70
2010,02,19,05,22,0.70
2010,02,19,05,23,0.80
2010,02,19,05,24,0.80
2010,02,19,05,25,0.80
2010,02,19,05,26,0.80
2010,02,19,05,27,0.80
2010,02,19,05,28,0.80
2010,02,19,05,29,0.80
2010,02,19,05,30,0.70
2010,02,19,05,31,0.70
2010,02,19,05,32,0.70
2010,02,19,05,33,0.70
2010,02,19,05,34,0.70
2010,02,19,05,35,0.60
2010,02,19,05,36,0.60
2010,02,19,05,37,0.60
2010,02,19,05,38,0.60
2010,02,19,05,39,0.60
2010,02,19,05,40,0.60
2010,02,19,05,41,0.50
2010,02,19,05,42,0.50
2010,02,19,05,43,0.50
2010,02,19,05,44,0.40
2010,02,19,05,45,0.40
2010,02,19,05,46,0.40
2010,02,19,05,47,0.50
2010,02,19,05,48,0.50
2010,02,19,05,49,0.50
2010,02,19,05,50,0.60
2010,02,19,05,51,0.60
2010,02,19,05,52,0.70
2010,02,19,05,53,0.80
2010,02,19,05,54,0.80
2010,02,19,05,55,0.90
2010,02,19,05,56,0.90
2010,02,19,05,57,0.90
2010,02,19,05,58,0.90
2010,02,19,05,59,0.90
2010,02,19,06,00,0.90
2010,02,19,06,01,0.80
2010,02,19,06,02,0.80
2010,02,19,06,03,0.80
2010,02,19,06,04,0.80
2010,02,19,06,05,0.70
2010,02,19,06,06,0.70
2010,02,19,06,07,0.70
2010,02,19,06,08,0.60
2010,02,19,06,09,0.60
2010,02,19,06,10,0.60
2010,02,19,06,11,0.60
2010,02,19,06,12,0.60
2010,02,19,06,13,0.60
2010,02,19,06,14,0.70
2010,02,19,06,15,0.70
2010,02,19,06,16,0.70
2010,02,19,06,17,0.70
2010,02,19,06,18,0.70
2010,02,19,06,19,0.70
2010,02,19,06,20,0.70
2010,02,19,06,21,0.70
2010,02,19,06,22,0.70
2010,02,19,06,23,0.70
2010,02,19,06,24,0.70
2010,02,19,06,25,0.60
2010,02,19,06,26,0.60
2010,02,19,06,27,0.60
2010,02,19,06,28,0.60
2010,02,19,06,29,0.50
2010,02,19,06,30,0.50
2010,02,19,06,31,0.50
2010,02,19,06,32,0.50
2010,02,19,06,33,0.50
2010,02,19,06,34,0.50
2010,02,19,06,35,0.50
2010,02,19,06,36,0.50
2010,02,19,06,37,0.40
2010,02,19,06,38,0.40
2010,02,19,06,39,0.40
2010,02,19,06,40,0.40
2010,02,19,06,41,0.40
2010,02,19,06,42,0.40
2010,02,19,06,43,0.40
2010,02,19,06,44,0.30
2010,02,19,06,45,0.30
2010,02,19,06,46,0.30
2010,02,19,06,47,0.30
2010,02,19,06,48,0.30
2010,02,19,06,49,0.30
2010,02,19,06,50,0.30
2010,02,19,06,51,0.30
2010,02,19,06,52,0.30
2010,02,19,06,53,0.30
2010,02,19,06,54,0.30
2010,02,19,06,55,0.30
2010,02,19,06,56,0.30
2010,02,19,06,57,0.30
2010,02,19,06,58,0.30
2010,02,19,06,59,0.30
2010,02,19,07,00,0.20
2010,02,19,07,01,0.20
2010,02,19,07,02,0.20
2010,02,19,07,03,0.20
2010,02,19,07,04,0.20
2010,02,19,07,05,0.20
2010,02,19,07,06,0.20
2010,02,19,07,07,0.20
2010,02,19,07,08,0.20
2010,02,19,07,09,0.20
2010,02,19,07,10,0.30
2010,02,19,07,11,0.30
2010,02,19,07,12,0.40
2010,02,19,07,13,0.40
2010,02,19,07,14,0.40
2010,02,19,07,15,0.40
2010,02,19,07,16,0.40
2010,02,19,07,17,0.40
2010,02,19,07,18,0.40
2010,02,19,07,19,0.40
2010,02,19,07,20,0.40
2010,02,19,07,21,0.40
2010,02,19,07,22,0.40
2010,02,19,07,23,0.40
2010,02,19,07,24,0.40
2010,02,19,07,25,0.40
2010,02,19,07,26,0.40
2010,02,19,07,27,0.30
2010,02,19,07,28,0.30
2010,02,19,07,29,0.30
2010,02,19,07,30,0.30
2010,02,19,07,31,0.30
2010,02,19,07,32,0.20
2010,02,19,07,33,0.30
2010,02,19,07,34,0.30
2010,02,19,07,35,0.30
2010,02,19,07,36,0.30
2010,02,19,07,37,0.30
2010,02,19,07,38,0.30
2010,02,19,07,39,0.30
2010,02,19,07,40,0.30
2010,02,19,07,41,0.30
2010,02,19,07,42,0.40
2010,02,19,07,43,0.50
2010,02,19,07,44,0.50
2010,02,19,07,45,0.60
2010,02,19,07,46,0.70
2010,02,19,07,47,0.80
2010,02,19,07,48,0.90
2010,02,19,07,49,0.90
2010,02,19,07,50,1.00
2010,02,19,07,51,1.10
2010,02,19,07,52,1.20
2010,02,19,07,53,1.20
2010,02,19,07,54,1.30
2010,02,19,07,55,1.30
2010,02,19,07,56,1.40
2010,02,19,07,57,1.50
2010,02,19,07,58,1.60
2010,02,19,07,59,1.60
2010,02,19,08,00,1.70
2010,02,19,08,01,1.80
2010,02,19,08,02,1.80
2010,02,19,08,03,1.90
2010,02,19,08,04,1.90
2010,02,19,08,05,2.00
2010,02,19,08,06,2.00
2010,02,19,08,07,2.10
2010,02,19,08,08,2.10
2010,02,19,08,09,2.20
2010,02,19,08,10,2.20
2010,02,19,08,11,2.20
2010,02,19,08,12,2.30
2010,02,19,08,13,2.40
2010,02,19,08,14,2.50
2010,02,19,08,15,2.50
2010,02,19,08,16,2.60
2010,02,19,08,17,2.70
2010,02,19,08,18,2.80
2010,02,19,08,19,2.80
2010,02,19,08,20,2.90
2010,02,19,08,21,3.00
2010,02,19,08,22,3.10
2010,02,19,08,23,3.20
2010,02,19,08,24,3.20
2010,02,19,08,25,3.30
2010,02,19,08,26,3.40
2010,02,19,08,27,3.50
2010,02,19,08,28,3.60
2010,02,19,08,29,3.70
2010,02,19,08,30,3.70
2010,02,19,08,31,3.80
2010,02,19,08,32,3.90
2010,02,19,08,33,3.90
2010,02,19,08,34,4.00
2010,02,19,08,35,4.10
2010,02,19,08,36,4.10
2010,02,19,08,37,4.10
2010,02,19,08,38,4.20
2010,02,19,08,39,4.20
2010,02,19,08,40,4.20
2010,02,19,08,41,4.30
2010,02,19,08,42,4.30
2010,02,19,08,43,4.30
2010,02,19,08,44,4.30
2010,02,19,08,45,4.30
2010,02,19,08,46,4.30
2010,02,19,08,47,4.30
2010,02,19,08,48,4.30
2010,02,19,08,49,4.30
2010,02,19,08,50,4.30
2010,02,19,08,51,4.30
2010,02,19,08,52,4.30
2010,02,19,08,53,4.30
2010,02,19,08,54,4.30
2010,02,19,08,55,4.30
2010,02,19,08,56,4.30
2010,02,19,08,57,4.40
2010,02,19,08,58,4.40
2010,02,19,08,59,4.50
2010,02,19,09,00,4.60
2010,02,19,09,01,4.60
2010,02,19,09,02,4.70
2010,02,19,09,03,4.80
2010,02,19,09,04,4.80
2010,02,19,09,05,4.90
2010,02,19,09,06,5.00
2010,02,19,09,07,5.00
2010,02,19,09,08,5.10
2010,02,19,09,09,5.20
2010,02,19,09,10,5.20
2010,02,19,09,11,5.20
2010,02,19,09,12,5.20
2010,02,19,09,13,5.20
2010,02,19,09,14,5.20
2010,02,19,09,15,5.10
2010,02,19,09,16,5.10
2010,02,19,09,17,5.00
2010,02,19,09,18,4.90
2010,02,19,09,19,4.80
2010,02,19,09,20,4.80
2010,02,19,09,21,4.70
2010,02,19,09,22,4.70
2010,02,19,09,23,4.70
2010,02,19,09,24,4.70
2010,02,19,09,25,4.70
2010,02,19,09,26,4.70
2010,02,19,09,27,4.70
2010,02,19,09,28,4.70
2010,02,19,09,29,4.70
2010,02,19,09,30,4.70
2010,02,19,09,31,4.70
2010,02,19,09,32,4.80
2010,02,19,09,33,4.80
2010,02,19,09,34,4.80
2010,02,19,09,35,4.80
2010,02,19,09,36,4.80
2010,02,19,09,37,4.80
2010,02,19,09,38,4.70
2010,02,19,09,39,4.70
2010,02,19,09,40,4.80
2010,02,19,09,41,4.80
2010,02,19,09,42,4.80
2010,02,19,09,43,4.90
2010,02,19,09,44,4.90
2010,02,19,09,45,5.00
2010,02,19,09,46,5.10
2010,02,19,09,47,5.20
2010,02,19,09,48,5.30
2010,02,19,09,49,5.40
2010,02,19,09,50,5.40
2010,02,19,09,51,5.50
2010,02,19,09,52,5.60
2010,02,19,09,53,5.70
2010,02,19,09,54,5.80
2010,02,19,09,55,5.80
2010,02,19,09,56,5.90
2010,02,19,09,57,5.90
2010,02,19,09,58,5.90
2010,02,19,09,59,6.00
2010,02,19,10,00,6.00
2010,02,19,10,01,6.00
2010,02,19,10,02,6.10
2010,02,19,10,03,6.10
2010,02,19,10,04,6.20
2010,02,19,10,05,6.20
2010,02,19,10,06,6.20
2010,02,19,10,07,6.30
2010,02,19,10,08,6.30
2010,02,19,10,09,6.30
2010,02,19,10,10,6.30
2010,02,19,10,11,6.40
2010,02,19,10,12,6.50
2010,02,19,10,13,6.60
2010,02,19,10,14,6.70
2010,02,19,10,15,6.70
2010,02,19,10,16,6.80
2010,02,19,10,17,6.90
2010,02,19,10,18,6.90
2010,02,19,10,19,7.00
2010,02,19,10,20,7.00
2010,02,19,10,21,7.10
2010,02,19,10,22,7.20
2010,02,19,10,23,7.20
2010,02,19,10,24,7.20
2010,02,19,10,25,7.20
2010,02,19,10,26,7.30
2010,02,19,10,27,7.40
2010,02,19,10,28,7.40
2010,02,19,10,29,7.50
2010,02,19,10,30,7.50
2010,02,19,10,31,7.50
2010,02,19,10,32,7.50
2010,02,19,10,33,7.50
2010,02,19,10,34,7.50
2010,02,19,10,35,7.50
2010,02,19,10,36,7.50
2010,02,19,10,37,7.50
2010,02,19,10,38,7.50
2010,02,19,10,39,7.50
2010,02,19,10,40,7.60
2010,02,19,10,41,7.60
2010,02,19,10,42,7.70
2010,02,19,10,43,7.70
2010,02,19,10,44,7.80
2010,02,19,10,45,7.90
2010,02,19,10,46,8.10
2010,02,19,10,47,8.20
2010,02,19,10,48,8.30
2010,02,19,10,49,8.50
2010,02,19,10,50,8.60
2010,02,19,10,51,8.70
2010,02,19,10,52,8.80
2010,02,19,10,53,8.80
2010,02,19,10,54,8.90
2010,02,19,10,55,8.90
2010,02,19,10,56,9.00
2010,02,19,10,57,9.00
2010,02,19,10,58,9.10
2010,02,19,10,59,9.10
2010,02,19,11,00,9.20
2010,02,19,11,01,9.20
2010,02,19,11,02,9.20
2010,02,19,11,03,9.30
2010,02,19,11,04,9.40
2010,02,19,11,05,9.60
2010,02,19,11,06,9.60
2010,02,19,11,07,9.70
2010,02,19,11,08,9.80
2010,02,19,11,09,9.80
2010,02,19,11,10,9.80
2010,02,19,11,11,9.80
2010,02,19,11,12,9.80
2010,02,19,11,13,9.90
2010,02,19,11,14,10.00
2010,02,19,11,15,10.10
2010,02,19,11,16,10.10
2010,02,19,11,17,10.10
2010,02,19,11,18,10.10
2010,02,19,11,19,10.10
2010,02,19,11,20,10.10
2010,02,19,11,21,10.10
2010,02,19,11,22,10.10
2010,02,19,11,23,10.10
2010,02,19,11,24,10.10
2010,02,19,11,25,10.00
2010,02,19,11,26,10.00
2010,02,19,11,27,10.00
2010,02,19,11,28,9.90
2010,02,19,11,29,9.90
2010,02,19,11,30,9.90
2010,02,19,11,31,10.00
2010,02,19,11,32,10.00
2010,02,19,11,33,10.10
2010,02,19,11,34,10.20
2010,02,19,11,35,10.20
2010,02,19,11,36,10.20
2010,02,19,11,37,10.20
2010,02,19,11,38,10.20
2010,02,19,11,39,10.20
2010,02,19,11,40,10.20
2010,02,19,11,41,10.20
2010,02,19,11,42,10.20
2010,02,19,11,43,10.30
2010,02,19,11,44,10.30
2010,02,19,11,45,10.30
2010,02,19,11,46,10.30
2010,02,19,11,47,10.30
2010,02,19,11,48,10.40
2010,02,19,11,49,10.40
2010,02,19,11,50,10.40
2010,02,19,11,51,10.40
2010,02,19,11,52,10.40
2010,02,19,11,53,10.40
2010,02,19,11,54,10.40
2010,02,19,11,55,10.50
2010,02,19,11,56,10.50
2010,02,19,11,57,10.40
2010,02,19,11,58,10.40
2010,02,19,11,59,10.40
2010,02,19,12,00,10.40
2010,02,19,12,01,10.40
2010,02,19,12,02,10.50
2010,02,19,12,03,10.50
2010,02,19,12,04,10.50
2010,02,19,12,05,10.50
2010,02,19,12,06,10.60
2010,02,19,12,07,10.60
2010,02,19,12,08,10.60
2010,02,19,12,09,10.50
2010,02,19,12,10,10.50
2010,02,19,12,11,10.50
2010,02,19,12,12,10.50
2010,02,19,12,13,10.50
2010,02,19,12,14,10.50
2010,02,19,12,15,10.50
2010,02,19,12,16,10.50
2010,02,19,12,17,10.40
2010,02,19,12,18,10.40
2010,02,19,12,19,10.40
2010,02,19,12,20,10.40
2010,02,19,12,21,10.50
2010,02,19,12,22,10.50
2010,02,19,12,23,10.50
2010,02,19,12,24,10.60
2010,02,19,12,25,10.60
2010,02,19,12,26,10.60
2010,02,19,12,27,10.60
2010,02,19,12,28,10.60
2010,02,19,12,29,10.60
2010,02,19,12,30,10.60
2010,02,19,12,31,10.50
2010,02,19,12,32,10.50
2010,02,19,12,33,10.50
2010,02,19,12,34,10.50
2010,02,19,12,35,10.50
2010,02,19,12,36,10.50
2010,02,19,12,37,10.50
2010,02,19,12,38,10.60
2010,02,19,12,39,10.60
2010,02,19,12,40,10.60
2010,02,19,12,41,10.70
2010,02,19,12,42,10.70
2010,02,19,12,43,10.70
2010,02,19,12,44,10.70
2010,02,19,12,45,10.70
2010,02,19,12,46,10.80
2010,02,19,12,47,10.80
2010,02,19,12,48,10.80
2010,02,19,12,49,10.90
2010,02,19,12,50,10.90
2010,02,19,12,51,10.90
2010,02,19,12,52,10.90
2010,02,19,12,53,10.90
2010,02,19,12,54,11.00
2010,02,19,12,55,11.00
2010,02,19,12,56,11.10
2010,02,19,12,57,11.10
2010,02,19,12,58,11.10
2010,02,19,12,59,11.20
2010,02,19,13,00,11.20
2010,02,19,13,01,11.20
2010,02,19,13,02,11.30
2010,02,19,13,03,11.30
2010,02,19,13,04,11.40
2010,02,19,13,05,11.50
2010,02,19,13,06,11.50
2010,02,19,13,07,11.50
2010,02,19,13,08,11.40
2010,02,19,13,09,11.50
2010,02,19,13,10,11.50
2010,02,19,13,11,11.50
2010,02,19,13,12,11.50
2010,02,19,13,13,11.50
2010,02,19,13,14,11.50
2010,02,19,13,15,11.60
2010,02,19,13,16,11.60
2010,02,19,13,17,11.60
2010,02,19,13,18,11.60
2010,02,19,13,19,11.60
2010,02,19,13,20,11.70
2010,02,19,13,21,11.70
2010,02,19,13,22,11.80
2010,02,19,13,23,11.80
2010,02,19,13,24,11.80
2010,02,19,13,25,11.80
2010,02,19,13,26,11.80
2010,02,19,13,27,11.80
2010,02,19,13,28,11.80
2010,02,19,13,29,11.80
2010,02,19,13,30,11.80
2010,02,19,13,31,11.80
2010,02,19,13,32,11.90
2010,02,19,13,33,11.90
2010,02,19,13,34,12.00
2010,02,19,13,35,12.00
2010,02,19,13,36,12.10
2010,02,19,13,37,12.20
2010,02,19,13,38,12.30
2010,02,19,13,39,12.30
2010,02,19,13,40,12.30
2010,02,19,13,41,12.30
2010,02,19,13,42,12.30
2010,02,19,13,43,12.30
2010,02,19,13,44,12.30
2010,02,19,13,45,12.30
2010,02,19,13,46,12.30
2010,02,19,13,47,12.30
2010,02,19,13,48,12.30
2010,02,19,13,49,12.30
2010,02,19,13,50,12.40
2010,02,19,13,51,12.40
2010,02,19,13,52,12.40
2010,02,19,13,53,12.40
2010,02,19,13,54,12.40
2010,02,19,13,55,12.40
2010,02,19,13,56,12.40
2010,02,19,13,57,12.40
2010,02,19,13,58,12.50
2010,02,19,13,59,12.50
2010,02,19,14,00,12.50
2010,02,19,14,01,12.50
2010,02,19,14,02,12.50
2010,02,19,14,03,12.50
2010,02,19,14,04,12.50
2010,02,19,14,05,12.60
2010,02,19,14,06,12.70
2010,02,19,14,07,12.70
2010,02,19,14,08,12.80
2010,02,19,14,09,12.80
2010,02,19,14,10,12.80
2010,02,19,14,11,12.80
2010,02,19,14,12,12.80
2010,02,19,14,13,12.80
2010,02,19,14,14,12.80
2010,02,19,14,15,12.80
2010,02,19,14,16,12.90
2010,02,19,14,17,12.90
2010,02,19,14,18,12.90
2010,02,19,14,19,12.90
2010,02,19,14,20,12.80
2010,02,19,14,21,12.80
2010,02,19,14,22,12.70
2010,02,19,14,23,12.70
2010,02,19,14,24,12.70
2010,02,19,14,25,12.70
2010,02,19,14,26,12.70
2010,02,19,14,27,12.70
2010,02,19,14,28,12.70
2010,02,19,14,29,12.70
2010,02,19,14,30,12.70
2010,02,19,14,31,12.70
2010,02,19,14,32,12.70
2010,02,19,14,33,12.70
2010,02,19,14,34,12.70
2010,02,19,14,35,12.70
2010,02,19,14,36,12.80
2010,02,19,14,37,12.80
2010,02,19,14,38,12.90
2010,02,19,14,39,12.90
2010,02,19,14,40,12.90
2010,02,19,14,41,12.90
2010,02,19,14,42,12.90
2010,02,19,14,43,12.90
2010,02,19,14,44,13.00
2010,02,19,14,45,13.00
2010,02,19,14,46,13.00
2010,02,19,14,47,13.10
2010,02,19,14,48,13.10
2010,02,19,14,49,13.10
2010,02,19,14,50,13.20
2010,02,19,14,51,13.30
2010,02,19,14,52,13.30
2010,02,19,14,53,13.30
2010,02,19,14,54,13.20
2010,02,19,14,55,13.20
2010,02,19,14,56,13.20
2010,02,19,14,57,13.20
2010,02,19,14,58,13.20
2010,02,19,14,59,13.20
2010,02,19,15,00,13.10
2010,02,19,15,01,13.10
2010,02,19,15,02,13.10
2010,02,19,15,03,13.10
2010,02,19,15,04,13.10
2010,02,19,15,05,13.10
2010,02,19,15,06,13.10
2010,02,19,15,07,13.10
2010,02,19,15,08,13.10
2010,02,19,15,09,13.10
2010,02,19,15,10,13.00
2010,02,19,15,11,13.00
2010,02,19,15,12,13.00
2010,02,19,15,13,13.00
2010,02,19,15,14,13.10
2010,02,19,15,15,13.10
2010,02,19,15,16,13.10
2010,02,19,15,17,13.10
2010,02,19,15,18,13.10
2010,02,19,15,19,13.10
2010,02,19,15,20,13.10
2010,02,19,15,21,13.10
2010,02,19,15,22,13.20
2010,02,19,15,23,13.20
2010,02,19,15,24,13.20
2010,02,19,15,25,13.20
2010,02,19,15,26,13.20
2010,02,19,15,27,13.20
2010,02,19,15,28,13.30
2010,02,19,15,29,13.30
2010,02,19,15,30,13.30
2010,02,19,15,31,13.30
2010,02,19,15,32,13.20
2010,02,19,15,33,13.20
2010,02,19,15,34,13.10
2010,02,19,15,35,13.10
2010,02,19,15,36,13.00
2010,02,19,15,37,13.00
2010,02,19,15,38,13.00
2010,02,19,15,39,13.00
2010,02,19,15,40,13.00
2010,02,19,15,41,13.00
2010,02,19,15,42,12.90
2010,02,19,15,43,12.90
2010,02,19,15,44,12.90
2010,02,19,15,45,12.90
2010,02,19,15,46,12.90
2010,02,19,15,47,12.80
2010,02,19,15,48,12.80
2010,02,19,15,49,12.80
2010,02,19,15,50,12.70
2010,02,19,15,51,12.70
2010,02,19,15,52,12.70
2010,02,19,15,53,12.70
2010,02,19,15,54,12.60
2010,02,19,15,55,12.60
2010,02,19,15,56,12.60
2010,02,19,15,57,12.60
2010,02,19,15,58,12.50
2010,02,19,15,59,12.50
2010,02,19,16,00,12.40
2010,02,19,16,01,12.40
2010,02,19,16,02,12.40
2010,02,19,16,03,12.40
2010,02,19,16,04,12.30
2010,02,19,16,05,12.30
2010,02,19,16,06,12.30
2010,02,19,16,07,12.30
2010,02,19,16,08,12.30
2010,02,19,16,09,12.30
2010,02,19,16,10,12.30
2010,02,19,16,11,12.30
2010,02,19,16,12,12.30
2010,02,19,16,13,12.30
2010,02,19,16,14,12.20
2010,02,19,16,15,12.20
2010,02,19,16,16,12.20
2010,02,19,16,17,12.20
2010,02,19,16,18,12.20
2010,02,19,16,19,12.20
2010,02,19,16,20,12.20
2010,02,19,16,21,12.20
2010,02,19,16,22,12.20
2010,02,19,16,23,12.10
2010,02,19,16,24,12.10
2010,02,19,16,25,12.00
2010,02,19,16,26,12.00
2010,02,19,16,27,12.00
2010,02,19,16,28,11.90
2010,02,19,16,29,11.90
2010,02,19,16,30,11.90
2010,02,19,16,31,11.90
2010,02,19,16,32,11.90
2010,02,19,16,33,11.90
2010,02,19,16,34,11.90
2010,02,19,16,35,11.80
2010,02,19,16,36,11.80
2010,02,19,16,37,11.80
2010,02,19,16,38,11.80
2010,02,19,16,39,11.80
2010,02,19,16,40,11.80
2010,02,19,16,41,11.80
2010,02,19,16,42,11.70
2010,02,19,16,43,11.70
2010,02,19,16,44,11.60
2010,02,19,16,45,11.60
2010,02,19,16,46,11.50
2010,02,19,16,47,11.40
2010,02,19,16,48,11.40
2010,02,19,16,49,11.30
2010,02,19,16,50,11.20
2010,02,19,16,51,11.10
2010,02,19,16,52,11.10
2010,02,19,16,53,11.00
2010,02,19,16,54,11.00
2010,02,19,16,55,10.90
2010,02,19,16,56,10.80
2010,02,19,16,57,10.80
2010,02,19,16,58,10.70
2010,02,19,16,59,10.70
2010,02,19,17,00,10.60
2010,02,19,17,01,10.60
2010,02,19,17,02,10.50
2010,02,19,17,03,10.40
2010,02,19,17,04,10.40
2010,02,19,17,05,10.30
2010,02,19,17,06,10.20
2010,02,19,17,07,10.10
2010,02,19,17,08,10.00
2010,02,19,17,09,9.90
2010,02,19,17,10,9.80
2010,02,19,17,11,9.70
2010,02,19,17,12,9.60
2010,02,19,17,13,9.50
2010,02,19,17,14,9.40
2010,02,19,17,15,9.30
2010,02,19,17,16,9.20
2010,02,19,17,17,9.10
2010,02,19,17,18,9.00
2010,02,19,17,19,8.90
2010,02,19,17,20,8.90
2010,02,19,17,21,8.80
2010,02,19,17,22,8.70
2010,02,19,17,23,8.60
2010,02,19,17,24,8.50
2010,02,19,17,25,8.40
2010,02,19,17,26,8.30
2010,02,19,17,27,8.20
2010,02,19,17,28,8.20
2010,02,19,17,29,8.10
2010,02,19,17,30,8.10
2010,02,19,17,31,8.00
2010,02,19,17,32,7.90
2010,02,19,17,33,7.90
2010,02,19,17,34,7.80
2010,02,19,17,35,7.70
2010,02,19,17,36,7.60
2010,02,19,17,37,7.60
2010,02,19,17,38,7.50
2010,02,19,17,39,7.40
2010,02,19,17,40,7.30
2010,02,19,17,41,7.30
2010,02,19,17,42,7.20
2010,02,19,17,43,7.20
2010,02,19,17,44,7.10
2010,02,19,17,45,7.10
2010,02,19,17,46,7.10
2010,02,19,17,47,7.00
2010,02,19,17,48,6.90
2010,02,19,17,49,6.90
2010,02,19,17,50,6.90